Wind_Speed
14 14 13 14 13 8 5 5 4 5 4 3 3 3 3 3 3 2 3 4 4 4 5 6 5 5 5 5 6 6 7 7 6 6 6 6 6 5 5 4 4 5 5 5 4 5 5 7 8
14 13 15 14 10 7 6 6 5 5 4 4 4 4 3 3 3 3 3 3 4 5 5 6 6 6 6 6 6 7 7 6 6 6 6 6 6 5 4 4 4 5 5 5 5 6 5 6 7
15 15 17 13 8 7 7 6 6 6 5 4 4 4 4 4 4 4 4 3 3 4 5 5 6 6 6 6 6 7 7 6 6 6 6 6 6 5 4 4 4 4 5 5 6 5 5 6 6
16 18 16 11 9 8 8 7 7 6 5 5 4 4 4 4 4 4 4 4 4 5 5 6 5 6 6 6 6 6 6 6 6 6 5 6 6 5 5 5 5 4 5 5 6 5 5 6 6
18 18 13 10 9 9 8 8 7 6 6 5 5 5 5 5 5 5 5 5 4 4 5 6 6 7 7 7 7 7 6 7 6 5 5 5 6 5 4 4 5 6 6 6 6 5 5 4 3
19 15 10 9 8 9 9 8 8 7 7 6 6 6 6 6 5 5 5 5 5 5 5 6 7 7 7 8 8 7 7 6 6 6 5 5 5 4 4 5 5 5 5 6 5 4 3 3 3
17 13 10 8 8 9 9 9 9 9 8 7 6 6 6 6 6 6 6 6 6 6 6 7 7 7 7 7 7 7 6 6 5 6 6 6 6 6 6 6 6 5 5 5 4 4 3 3 2
14 12 9 7 9 9 10 10 9 9 8 8 7 6 6 6 6 6 6 6 6 6 7 7 7 7 7 6 6 7 6 6 5 6 6 6 6 6 6 6 6 5 5 4 4 3 3 2 1
13 10 8 7 9 10 10 10 10 9 9 9 8 7 7 6 6 6 6 6 6 6 6 6 6 5 6 6 6 6 6 6 5 5 5 5 5 5 5 5 5 4 4 4 3 3 2 1 0
10 8 8 8 9 11 10 9 10 9 9 9 9 8 7 7 6 6 6 6 5 6 6 6 6 6 6 6 6 6 6 6 6 5 5 5 5 5 4 3 3 3 3 2 2 2 0 0 0
7 8 8 8 10 10 10 11 11 10 9 9 9 9 8 7 7 7 7 7 6 6 6 6 6 6 6 6 6 6 7 6 6 6 5 5 5 5 4 3 2 2 3 3 3 3 1 0 1
6 8 9 9 10 10 11 12 12 11 10 9 9 9 8 8 7 7 8 7 7 7 7 6 7 6 6 6 7 7 6 7 6 6 6 5 5 5 4 3 3 3 3 3 3 3 3 2 1
6 7 8 9 10 9 10 11 11 11 10 10 10 10 9 8 8 7 7 8 8 7 7 6 6 6 5 6 6 7 7 6 6 6 6 5 4 4 4 4 4 4 4 4 4 4 4 3 3
4 5 6 7 9 9 10 11 11 12 10 9 9 9 9 10 9 8 7 7 8 8 8 8 7 6 6 6 7 7 6 6 6 6 5 5 5 4 4 4 4 5 5 4 4 4 4 4 3
4 4 5 5 6 7 7 8 10 10 10 9 8 9 9 9 9 8 8 9 9 8 8 7 6 7 6 6 6 6 6 6 6 5 6 5 5 5 4 4 4 4 4 4 4 4 4 4 4
3 2 3 4 6 6 6 7 8 9 9 9 9 9 9 9 9 8 8 9 9 8 8 7 6 6 6 6 6 6 6 6 6 6 7 7 5 5 5 4 4 4 4 4 4 4 4 5 5
3 1 2 3 4 5 6 6 7 8 8 8 8 8 8 9 9 8 8 8 9 9 8 8 7 6 6 5 6 6 6 6 6 6 7 7 6 6 6 5 5 4 4 5 5 6 6 6 6
2 1 2 3 4 4 4 5 6 7 7 7 7 7 7 8 8 8 8 9 9 9 9 8 8 7 6 5 6 6 6 6 6 6 6 6 6 6 6 6 5 5 6 6 6 7 7 7 7
2 2 1 1 3 3 3 5 7 6 7 6 6 7 7 7 8 8 8 8 8 8 9 9 8 8 7 6 6 6 6 6 6 6 6 6 6 7 6 6 6 7 7 8 8 8 8 8 8
4 4 1 0 2 3 3 3 6 6 5 6 6 6 6 6 7 7 7 7 7 8 9 9 9 8 7 7 6 6 7 6 6 7 6 6 7 7 7 7 7 8 9 9 9 9 9 9 9
6 4 4 4 1 4 4 4 5 4 6 6 6 5 5 5 5 7 6 6 7 7 8 8 8 8 8 7 7 7 7 7 7 6 6 7 8 7 7 7 8 9 9 10 10 10 10 9 9
8 6 7 6 5 6 4 5 6 5 5 6 5 5 5 5 6 6 6 7 7 7 7 7 7 7 8 7 7 7 7 7 7 7 7 7 7 8 8 8 9 10 10 10 10 10 10 10 10
9 8 8 8 7 7 6 6 5 7 7 7 6 6 5 5 6 6 7 7 7 7 7 7 7 7 7 7 7 7 7 7 8 8 7 7 8 8 8 9 10 10 11 12 12 11 11 11 11
11 11 10 8 6 7 7 7 7 7 7 7 8 8 7 6 6 7 8 7 7 7 7 7 7 7 7 7 7 7 7 7 8 8 8 8 8 8 9 10 11 12 12 13 12 12 12 12 11
13 12 11 10 9 8 8 8 9 9 8 8 9 9 8 8 7 8 8 8 8 8 7 7 7 7 7 7 7 7 7 8 8 8 9 9 9 10 10 11 12 13 13 13 13 12 12 12 12
14 13 12 11 8 8 9 10 11 11 10 10 10 11 10 9 8 8 8 9 9 8 8 8 8 7 7 8 8 8 8 8 8 9 10 10 10 10 11 12 13 13 13 14 14 13 13 13 13
15 15 14 13 11 11 11 12 13 12 10 10 10 11 10 9 8 9 9 10 10 9 9 9 9 8 8 8 9 9 9 9 9 10 10 11 11 12 12 12 13 14 14 14 14 14 13 13 13
16 15 14 14 14 14 13 12 13 12 12 13 12 12 11 10 8 10 10 10 11 11 10 10 10 9 9 9 9 9 10 10 10 10 11 11 12 13 13 14 14 14 15 15 15 15 14 14 14
16 16 16 16 15 14 15 13 14 12 13 14 13 13 12 11 9 11 11 11 11 12 11 11 12 11 11 11 10 10 10 11 11 12 12 12 13 14 14 15 16 15 15 15 15 15 15 16 16
17 17 18 18 17 17 17 16 15 15 15 15 15 15 14 13 13 13 13 12 13 13 13 12 12 12 12 12 12 12 12 12 13 13 13 14 14 15 16 17 17 16 16 17 17 16 16 17 17
Wind_Direction
73 73 71 61 52 46 38 51 59 66 74 81 81 86 95 93 84 80 90 95 99 83 89 86 82 86 98 96 102 108 112 114 118 129 138 138 140 137 137 135 128 131 138 150 149 143 150 153 155
72 71 66 59 46 26 37 44 50 62 69 77 78 82 89 96 90 81 78 96 100 89 83 77 77 88 92 94 94 101 102 106 111 121 130 137 138 135 138 144 132 128 136 142 144 146 146 149 150
70 66 60 53 36 31 37 45 55 64 67 75 77 79 83 87 82 74 68 80 95 90 86 80 78 85 95 96 93 97 98 100 101 106 111 123 128 127 126 137 137 123 125 135 137 141 140 138 143
70 61 53 47 41 35 35 42 57 69 67 70 75 74 77 80 79 74 70 72 92 99 91 86 82 95 95 95 97 96 92 90 91 100 101 108 122 123 121 126 128 122 123 126 127 125 138 150 139
68 60 47 40 33 35 40 38 46 61 62 67 72 72 74 77 74 70 66 61 87 99 95 88 96 95 97 99 96 93 90 88 85 88 100 107 112 114 113 115 118 123 125 129 134 137 132 144 149
67 60 49 41 39 36 42 40 44 57 68 67 66 68 70 76 74 67 67 63 79 96 96 95 98 93 98 100 96 93 91 85 82 88 97 108 108 103 105 107 115 121 124 128 138 141 142 148 137
69 66 54 43 36 37 42 43 45 55 66 63 58 61 63 68 70 70 72 71 69 85 89 94 95 98 97 96 94 92 88 83 87 88 92 106 104 102 105 107 108 116 127 131 139 132 146 154 144
70 68 59 44 40 40 44 44 47 59 61 59 57 60 58 61 64 68 70 74 73 79 82 79 83 92 97 96 88 87 84 81 92 95 96 99 97 99 105 107 110 112 113 121 129 133 146 160 169
66 67 62 51 44 42 43 44 48 54 56 56 58 58 60 61 61 64 69 72 74 75 68 57 62 78 92 96 92 85 79 76 76 80 87 90 86 94 107 103 106 114 117 128 130 128 125 152 216
69 67 57 52 51 46 44 47 48 50 53 50 53 54 56 59 63 62 62 67 69 70 65 59 58 59 78 83 83 82 78 79 76 82 86 89 87 88 95 93 94 98 89 97 100 79 69 161 103
75 73 56 51 58 57 49 48 49 45 50 47 49 52 56 60 63 63 60 59 60 61 60 58 61 63 75 78 75 75 72 71 69 74 76 76 78 76 82 87 84 74 57 62 64 53 41 5 325
60 67 58 59 57 57 50 48 50 46 49 48 49 51 55 57 59 58 54 55 55 52 55 56 55 65 76 78 73 71 73 70 66 68 68 67 62 60 73 76 73 66 60 61 51 46 35 28 16
68 62 55 57 59 56 51 48 49 45 44 48 51 52 54 55 56 55 53 53 54 51 52 53 52 52 69 73 75 75 71 69 65 65 67 65 62 64 65 64 62 64 66 62 58 52 39 31 19
92 81 69 53 56 58 54 42 43 45 42 43 47 48 53 54 54 55 56 55 52 51 47 46 49 56 69 65 65 67 67 64 63 60 60 62 64 61 63 61 57 64 59 55 54 50 43 34 19
94 77 73 59 41 34 53 44 37 41 36 35 43 47 50 51 49 49 49 47 46 45 44 46 51 53 56 56 55 57 61 57 57 55 52 49 54 51 50 54 62 54 44 43 41 34 27 14 7
92 63 51 40 33 20 35 41 34 32 31 30 37 45 48 49 50 48 48 46 44 44 42 44 55 57 54 52 49 46 43 42 42 47 48 46 51 47 38 41 41 33 27 22 13 2 353 352 349
10 28 63 24 26 17 17 18 18 20 23 24 34 42 45 47 46 45 47 46 43 45 45 48 51 57 50 42 37 40 42 42 43 41 41 42 44 39 36 33 27 20 14 3 357 353 345 344 340
321 4 39 12 348 13 4 351 1 9 11 16 30 38 39 42 44 43 44 42 41 44 44 42 42 44 39 36 33 37 40 35 31 33 35 36 33 31 23 20 16 5 357 347 340 337 334 335 336
287 258 120 23 333 333 327 335 351 358 360 4 17 26 25 30 38 38 37 35 37 39 39 37 35 37 35 31 29 27 24 22 20 18 21 22 21 18 10 6 4 359 352 344 337 331 326 325 326
238 249 286 214 301 304 297 320 329 339 345 349 357 8 14 14 23 30 28 29 32 31 28 28 27 24 26 26 26 20 16 13 10 8 9 8 5 1 359 359 354 351 349 345 339 336 331 326 325
249 222 221 229 257 319 338 332 328 323 335 336 342 350 5 4 8 16 25 30 25 15 13 15 16 16 19 19 15 11 11 9 3 2 2 358 356 354 351 350 349 347 346 343 340 338 338 335 331
243 232 215 214 222 264 293 305 313 326 325 326 330 342 347 351 359 359 5 7 7 3 360 1 6 8 8 6 6 2 3 4 2 0 356 351 352 353 353 349 347 344 343 342 341 338 338 335 333
231 238 232 231 223 232 265 281 282 303 301 313 314 319 319 328 344 349 349 350 349 351 350 353 357 357 356 355 357 357 357 357 358 0 354 350 347 345 347 346 346 342 339 339 339 337 334 332 330
229 238 246 246 245 245 261 265 265 277 287 300 304 309 319 324 327 336 336 337 337 339 342 343 344 344 344 346 348 349 350 350 351 353 351 349 349 349 347 344 343 342 341 340 337 335 333 330 327
233 239 247 244 247 248 262 260 267 278 287 295 297 299 305 310 315 323 327 329 327 329 331 333 334 338 338 339 338 339 340 339 340 341 341 340 341 342 343 341 338 336 337 338 337 333 331 331 329
237 238 246 251 246 255 265 269 277 273 274 279 285 291 292 297 303 312 318 318 318 320 323 323 324 328 332 333 332 329 328 329 331 331 332 334 334 334 335 336 336 334 334 335 335 335 332 328 327
236 235 241 252 251 246 247 261 272 277 278 279 282 286 289 294 298 306 311 312 314 316 318 320 320 320 321 323 323 323 324 324 324 325 327 328 331 332 332 333 332 333 332 333 333 330 328 323 322
239 240 239 238 244 246 243 250 266 269 272 276 276 280 285 287 291 299 302 305 308 310 313 317 319 317 315 314 313 314 316 316 316 321 324 326 328 328 327 327 327 327 329 330 331 330 325 323 320
239 243 240 242 243 247 251 256 262 262 267 274 277 279 281 283 289 290 290 296 299 300 304 307 309 310 309 308 306 307 308 310 313 316 319 320 320 322 322 322 323 323 324 325 325 324 321 320 320
239 236 239 243 245 246 247 253 262 261 262 266 267 272 277 277 280 284 288 293 294 295 297 299 301 301 301 301 301 301 304 307 311 314 315 316 317 318 318 317 319 319 319 319 321 320 319 317 318
Height
5881 5880 5880 5879 5879 5880 5879 5878 5877 5877 5876 5876 5876 5876 5875 5876 5876 5878 5875 5874 5873 5873 5872 5871 5871 5871 5870 5870 5870 5871 5871 5871 5872 5872 5873 5873 5874 5875 5875 5875 5876 5877 5877 5877 5878 5878 5879 5880 5881
5883 5883 5881 5881 5882 5882 5881 5880 5879 5878 5878 5877 5877 5877 5877 5876 5876 5876 5875 5875 5875 5874 5873 5873 5872 5872 5872 5872 5872 5872 5872 5872 5873 5873 5874 5875 5875 5876 5876 5876 5877 5877 5878 5878 5879 5879 5879 5880 5881
5886 5884 5883 5884 5885 5884 5883 5882 5881 5880 5880 5879 5879 5879 5879 5878 5878 5877 5877 5876 5876 5876 5875 5874 5874 5874 5874 5874 5874 5874 5874 5874 5874 5875 5875 5876 5877 5877 5877 5877 5878 5878 5879 5879 5880 5880 5881 5881 5882
5887 5886 5887 5888 5887 5886 5885 5884 5882 5882 5881 5881 5881 5880 5879 5880 5879 5879 5878 5878 5877 5877 5877 5876 5876 5876 5875 5875 5875 5876 5876 5876 5876 5876 5877 5877 5878 5878 5878 5878 5879 5880 5880 5881 5882 5882 5882 5882 5883
5888 5889 5891 5891 5890 5888 5887 5885 5884 5884 5883 5883 5882 5882 5881 5881 5881 5880 5880 5879 5879 5879 5878 5878 5877 5877 5877 5877 5877 5878 5878 5877 5877 5878 5878 5879 5879 5879 5879 5879 5880 5881 5882 5882 5883 5884 5884 5884 5884
5891 5894 5896 5894 5892 5891 5889 5888 5887 5885 5885 5884 5884 5884 5883 5883 5883 5882 5882 5881 5881 5880 5880 5880 5879 5879 5879 5879 5879 5879 5879 5879 5879 5879 5879 5880 5880 5881 5881 5881 5881 5882 5883 5883 5884 5884 5885 5885 5885
5896 5898 5898 5897 5895 5893 5892 5890 5889 5888 5887 5887 5887 5886 5885 5885 5884 5884 5884 5883 5882 5882 5882 5882 5881 5880 5881 5881 5881 5881 5881 5881 5881 5881 5881 5881 5882 5882 5882 5882 5883 5883 5884 5884 5885 5885 5886 5886 5887
5899 5900 5901 5900 5897 5895 5894 5892 5891 5891 5890 5889 5889 5888 5887 5887 5886 5886 5885 5885 5884 5884 5884 5884 5883 5883 5883 5883 5883 5883 5883 5882 5882 5882 5882 5882 5883 5883 5883 5884 5884 5884 5884 5885 5885 5886 5887 5887 5887
5903 5904 5903 5902 5899 5897 5896 5895 5894 5893 5892 5891 5891 5890 5889 5888 5888 5887 5887 5887 5886 5886 5885 5885 5885 5885 5884 5884 5884 5884 5884 5884 5884 5884 5884 5884 5884 5885 5885 5885 5885 5886 5886 5886 5886 5887 5887 5887 5888
5906 5906 5905 5903 5902 5900 5898 5897 5896 5895 5894 5893 5892 5891 5891 5890 5890 5889 5889 5888 5888 5888 5887 5887 5887 5886 5886 5886 5886 5886 5886 5886 5886 5885 5885 5886 5886 5886 5886 5886 5886 5887 5887 5887 5887 5887 5888 5888 5888
5907 5908 5907 5905 5904 5902 5901 5899 5898 5897 5896 5895 5894 5894 5893 5892 5892 5891 5891 5890 5890 5890 5889 5889 5888 5888 5888 5888 5888 5888 5888 5887 5887 5887 5887 5887 5887 5888 5887 5887 5887 5888 5888 5888 5888 5888 5888 5888 5888
5909 5909 5908 5907 5906 5905 5903 5902 5901 5900 5899 5898 5897 5896 5895 5894 5894 5893 5893 5892 5892 5892 5892 5891 5890 5890 5890 5890 5890 5890 5890 5889 5889 5889 5889 5889 5889 5889 5888 5888 5888 5889 5889 5889 5889 5889 5889 5888 5889
5912 5911 5910 5909 5908 5907 5906 5905 5903 5902 5901 5900 5899 5898 5897 5896 5896 5895 5895 5894 5894 5894 5894 5893 5893 5892 5892 5892 5892 5892 5892 5891 5891 5891 5890 5890 5890 5890 5890 5890 5890 5890 5890 5890 5889 5889 5889 5889 5888
5913 5912 5912 5911 5910 5909 5908 5907 5906 5905 5903 5902 5901 5900 5899 5899 5898 5898 5897 5897 5896 5896 5896 5895 5895 5894 5894 5894 5894 5894 5894 5893 5893 5892 5892 5892 5891 5891 5891 5891 5891 5891 5891 5890 5890 5890 5889 5889 5889
5914 5914 5913 5913 5912 5911 5910 5910 5909 5907 5906 5905 5904 5903 5902 5901 5900 5900 5900 5899 5898 5898 5897 5897 5897 5896 5896 5896 5896 5896 5895 5895 5894 5894 5894 5893 5893 5892 5892 5892 5892 5892 5892 5891 5891 5890 5890 5889 5889
5914 5914 5915 5915 5914 5913 5913 5912 5911 5909 5908 5907 5906 5905 5904 5903 5903 5902 5902 5901 5901 5900 5899 5899 5899 5898 5898 5898 5898 5897 5897 5896 5896 5896 5895 5895 5894 5894 5894 5893 5893 5893 5892 5892 5892 5891 5891 5890 5889
5915 5916 5915 5917 5916 5915 5914 5913 5912 5911 5910 5909 5908 5907 5906 5905 5905 5904 5903 5903 5902 5902 5901 5901 5900 5900 5900 5900 5899 5899 5898 5898 5898 5897 5897 5896 5896 5896 5895 5894 5894 5894 5893 5892 5892 5891 5890 5889 5889
5917 5917 5917 5918 5917 5916 5916 5915 5913 5912 5912 5911 5910 5909 5908 5907 5907 5906 5905 5905 5904 5904 5903 5902 5902 5902 5901 5901 5901 5900 5900 5900 5899 5899 5898 5898 5897 5897 5896 5895 5895 5894 5893 5892 5891 5891 5890 5889 5888
5918 5918 5919 5919 5918 5918 5917 5916 5914 5914 5913 5911 5911 5910 5910 5909 5908 5907 5907 5906 5905 5905 5905 5904 5904 5903 5903 5902 5902 5901 5901 5901 5900 5900 5899 5898 5898 5897 5896 5896 5895 5894 5893 5892 5891 5890 5889 5888 5887
5918 5917 5918 5919 5919 5918 5917 5917 5916 5915 5914 5913 5912 5911 5911 5910 5909 5909 5908 5907 5906 5906 5906 5906 5905 5904 5904 5903 5903 5902 5902 5901 5901 5900 5899 5899 5898 5897 5896 5896 5895 5894 5893 5892 5891 5889 5888 5887 5886
5916 5917 5919 5919 5918 5918 5918 5917 5917 5915 5915 5913 5913 5912 5911 5911 5911 5910 5908 5908 5908 5907 5907 5906 5906 5905 5905 5904 5904 5903 5902 5902 5901 5901 5900 5899 5898 5897 5896 5896 5895 5894 5893 5891 5890 5889 5887 5886 5885
5916 5916 5916 5917 5918 5917 5918 5918 5916 5916 5915 5914 5913 5912 5911 5911 5911 5911 5910 5909 5909 5908 5908 5907 5906 5905 5905 5904 5904 5903 5903 5902 5902 5901 5900 5899 5898 5897 5897 5896 5895 5893 5892 5891 5889 5888 5886 5885 5884
5914 5914 5914 5915 5915 5916 5917 5918 5917 5916 5915 5914 5913 5913 5912 5911 5911 5911 5911 5910 5909 5909 5908 5907 5907 5906 5905 5905 5904 5904 5903 5902 5902 5901 5900 5899 5898 5897 5896 5895 5894 5892 5891 5889 5888 5886 5885 5883 5882
5912 5913 5912 5913 5913 5915 5916 5917 5916 5915 5914 5914 5913 5913 5911 5911 5911 5911 5910 5910 5909 5909 5908 5907 5906 5906 5905 5905 5904 5904 5903 5902 5902 5901 5900 5899 5898 5897 5895 5894 5893 5891 5890 5888 5887 5885 5883 5882 5880
5909 5910 5910 5911 5912 5914 5915 5915 5916 5914 5914 5914 5913 5912 5912 5911 5911 5911 5910 5910 5909 5908 5907 5907 5906 5905 5905 5904 5904 5903 5903 5902 5901 5900 5899 5898 5897 5896 5895 5893 5892 5890 5889 5887 5885 5883 5881 5880 5878
5907 5908 5909 5910 5911 5913 5913 5913 5915 5914 5913 5913 5912 5912 5911 5911 5910 5910 5910 5909 5908 5907 5906 5906 5905 5905 5904 5904 5903 5902 5902 5901 5900 5899 5898 5897 5896 5895 5894 5892 5890 5889 5887 5885 5883 5881 5879 5878 5876
5904 5906 5908 5908 5909 5910 5911 5911 5912 5911 5911 5911 5911 5910 5909 5908 5909 5909 5908 5908 5907 5906 5905 5905 5904 5904 5903 5903 5902 5901 5900 5900 5899 5898 5897 5896 5895 5893 5892 5890 5889 5887 5885 5883 5881 5879 5877 5875 5874
5901 5903 5905 5906 5906 5906 5907 5908 5910 5908 5909 5909 5908 5907 5907 5906 5906 5907 5907 5906 5906 5905 5904 5904 5903 5902 5902 5901 5901 5900 5899 5899 5898 5896 5895 5894 5893 5891 5890 5888 5886 5885 5883 5880 5878 5876 5874 5873 5871
5898 5900 5900 5902 5902 5904 5905 5907 5905 5906 5906 5906 5905 5905 5905 5904 5904 5905 5905 5904 5904 5904 5903 5902 5901 5901 5900 5899 5899 5898 5897 5897 5896 5895 5894 5892 5891 5889 5888 5886 5884 5882 5880 5878 5876 5874 5872 5870 5868
5894 5896 5898 5899 5899 5900 5901 5904 5902 5901 5902 5903 5903 5902 5902 5902 5903 5902 5902 5902 5902 5901 5901 5900 5899 5898 5898 5897 5896 5896 5895 5894 5894 5893 5891 5890 5888 5887 5885 5883 5881 5879 5877 5875 5873 5871 5869 5867 5865